Location: Tumbler Ridge
(55.1167°N, 121.0000°W)
Time: 15:32:54
(UTC-07:00)

Daily predictions for brighter satellites

Satellite Brightness Start Highest point End
(mag) Time Altitude Azimuth Time Altitude Azimuth Time Altitude Azimuth
USA 234 3.7 22:41:01 10° ENE 22:47:03 38° SE 22:53:04 10° SSW
Terra 1.9 22:42:38 10° SSE 22:47:24 89° WSW 22:52:13 10° NNW
SME Rocket 3.8 22:51:29 10° SE 22:55:27 55° ENE 23:00:51 10° NNW
Cosmos 1726 4.1 22:52:35 10° NNW 22:55:42 26° W 22:58:46 10° SSW
Meteor 1-11 4.4 22:50:22 10° S 22:56:08 68° E 23:01:54 10° NNE
Cosmos 2227 4.3 22:50:40 10° SSW 22:56:24 89° SE 23:02:09 10° NE
Cosmos 1626 2.5 22:54:33 10° S 22:58:09 49° E 23:01:47 10° NNE
Cosmos 304 Rocket 3.9 22:54:01 10° NNW 22:58:50 75° WSW 23:03:37 10° SSE
Cosmos 1300 4.4 22:56:49 10° NNW 23:00:13 30° W 23:03:35 10° SSW
Cosmos 220 Rocket 4.0 22:56:26 10° SSW 23:00:50 76° ESE 23:05:13 10° NNE
Cosmos 2058 3.0 22:58:20 10° S 23:02:30 66° E 23:06:43 10° NNE
CZ-4B R/B 4.3 23:01:19 10° NNE 23:06:15 38° E 23:11:07 10° SSE
H-2A R/B 3.2 23:02:19 10° SSW 23:07:22 41° W 23:12:32 10° NNW
Cosmos 540 Rocket 3.6 23:02:49 10° NNW 23:08:00 75° WSW 23:13:08 10° SSE
Cosmos 2297 Rocket 4.3 23:05:26 10° W 23:10:29 32° NW 23:15:35 10° NNE
SL-14 R/B 4.0 23:07:08 10° SSW 23:11:01 53° WNW 23:14:52 10° N
PSLV R/B 3.1 23:12:34 10° S 23:15:23 72° WSW 23:18:16 10° NNW
Sich 1 4.1 23:13:51 10° SSE 23:17:35 31° E 23:21:22 10° NNE
Cosmos 2263 Rocket 2.3 23:12:49 10° SSW 23:18:15 57° ESE 23:23:45 10° NE
Spot 4 3.9 23:13:27 10° SSE 23:18:20 87° WSW 23:23:15 10° NNW
deb Chang Zheng 4 3.8 23:15:10 10° NNE 23:19:29 57° ESE 23:23:49 10° S
COSMOS 2406 3.4 23:15:25 10° NNW 23:21:07 73° NE 23:26:48 10° SE
ATLAS 5 CENTAUR R/B 2.7 23:17:36 10° WSW 23:22:28 59° NNW 23:27:56 10° NE
Cosmos 1356 3.7 23:20:21 10° SSW 23:23:50 72° WNW 23:27:22 10° N
Cosmos 1707 Rocket 3.6 23:19:25 10° N 23:23:56 80° E 23:28:12 11° SSE
Cosmos 2285 Rocket 4.4 23:18:54 10° NNW 23:25:06 58° WSW 23:31:19 10° S
BREEZE-M DEB (TANK) 3.3 23:25:40 10° WSW 23:28:33 44° S 23:37:49 10° ESE
Cosmos 2082 Rocket 3.9 23:24:37 10° NNW 23:29:29 29° NE 23:34:20 10° E
Cosmos 2151 3.4 23:25:40 10° SSW 23:29:56 64° WNW 23:34:16 10° N
ALOS 2 3.6 23:25:56 10° SE 23:29:57 37° ENE 23:34:01 10° N
Cosmos 2034 Rocket 4.2 23:23:53 10° N 23:30:16 73° ENE 23:36:19 11° SSE
DELTA 2 DEB (DPAF) 4.2 23:26:35 11° SSE 23:30:54 80° WSW 23:35:25 10° NNW
Cosmos 1455 2.9 23:29:55 10° NNW 23:33:41 50° W 23:37:25 10° S
Cosmos 1891 Rocket 4.5 23:30:01 10° N 23:36:11 85° E 23:41:55 12° SSE
CZ-2C R/B 3.6 23:35:01 11° SE 23:40:34 60° ENE 23:46:04 10° N
Cosmos 1933 4.1 23:38:01 10° N 23:42:00 45° ENE 23:45:33 12° SE
Cosmos 1538 Rocket 4.2 23:37:24 10° NNW 23:42:48 73° ENE 23:47:56 11° SE
Cosmos 1354 Rocket 4.0 23:38:04 10° SSW 23:43:17 74° ESE 23:48:33 10° NNE
Cosmos 1869 3.4 23:41:38 10° NNW 23:45:36 70° W 23:49:05 13° S
Cosmos 1666 Rocket 3.8 23:42:43 12° S 23:46:46 58° E 23:51:08 10° NNE
Cosmos 1862 Rocket 4.1 23:43:41 10° N 23:47:58 50° ENE 23:51:48 13° SSE
Cosmos 1844 Rocket 3.7 23:47:58 13° SSE 23:52:06 29° ESE 23:56:49 10° NE
CZ-4B R/B 4.0 23:51:48 10° E 23:54:00 16° ENE 23:56:12 10° NNE
